Total_Precipitation_Accumulation
0.03 0.09 0.22 0.48 1.31 1.67 1.45 0.76 0.53 0.40 0.38 0.47 0.46 0.41 0.50 0.66 0.88 1.32 0.77 0.26 0.08 0.04 0.08 0.15 0.20 0.18 0.19 0.20 0.20 0.24 0.24 0.23 0.21 0.21 0.20 0.17 0.18 0.19 0.21 0.23 0.25 0.29 0.30 0.27 0.24 0.25 0.26 0.25 0.23
0.05 0.13 0.28 0.69 1.60 2.04 1.51 0.72 0.44 0.31 0.39 0.52 0.61 0.56 0.46 0.48 0.35 0.27 0.33 0.40 0.12 0.03 0.04 0.08 0.15 0.18 0.16 0.17 0.20 0.23 0.24 0.22 0.21 0.20 0.21 0.22 0.24 0.26 0.29 0.30 0.28 0.28 0.27 0.24 0.23 0.21 0.23 0.23 0.21
0.08 0.15 0.36 0.80 1.21 1.33 1.09 0.59 0.34 0.32 0.39 0.55 0.61 0.47 0.41 0.51 0.35 0.24 0.23 0.26 0.13 0.08 0.06 0.08 0.13 0.16 0.16 0.17 0.20 0.22 0.22 0.21 0.22 0.21 0.22 0.25 0.27 0.29 0.31 0.32 0.33 0.30 0.27 0.24 0.23 0.21 0.19 0.20 0.21
0.07 0.17 0.39 0.61 0.62 0.54 0.46 0.36 0.32 0.34 0.42 0.44 0.52 0.51 0.38 0.43 0.35 0.26 0.26 0.23 0.16 0.12 0.11 0.14 0.17 0.17 0.17 0.17 0.18 0.19 0.19 0.20 0.21 0.21 0.23 0.26 0.27 0.31 0.35 0.34 0.33 0.30 0.27 0.22 0.22 0.23 0.20 0.20 0.22
0.08 0.22 0.45 0.48 0.36 0.35 0.36 0.35 0.36 0.40 0.44 0.55 0.66 0.69 0.63 0.46 0.37 0.46 0.54 0.45 0.31 0.22 0.20 0.21 0.24 0.23 0.20 0.20 0.19 0.20 0.19 0.20 0.22 0.24 0.26 0.27 0.28 0.33 0.35 0.32 0.31 0.29 0.26 0.21 0.22 0.27 0.27 0.28 0.31
0.10 0.27 0.33 0.31 0.26 0.29 0.35 0.35 0.35 0.41 0.51 0.73 0.75 0.70 0.70 0.60 0.51 0.58 0.62 0.77 0.65 0.37 0.29 0.27 0.33 0.32 0.27 0.26 0.26 0.24 0.23 0.24 0.25 0.24 0.25 0.26 0.29 0.34 0.33 0.31 0.33 0.31 0.28 0.26 0.24 0.26 0.30 0.36 0.37
0.13 0.29 0.25 0.22 0.19 0.22 0.24 0.33 0.43 0.46 0.56 0.73 0.64 0.62 0.81 0.87 0.71 0.67 0.67 0.74 0.67 0.45 0.42 0.37 0.33 0.31 0.31 0.34 0.36 0.34 0.29 0.30 0.29 0.26 0.25 0.25 0.29 0.33 0.32 0.33 0.37 0.35 0.32 0.32 0.31 0.25 0.27 0.30 0.35
0.08 0.15 0.16 0.16 0.14 0.18 0.17 0.23 0.38 0.52 0.57 0.56 0.60 0.77 1.10 1.01 0.67 0.64 0.71 0.75 0.69 0.62 0.57 0.56 0.50 0.44 0.37 0.36 0.40 0.42 0.38 0.37 0.34 0.31 0.30 0.35 0.40 0.41 0.40 0.36 0.42 0.40 0.37 0.39 0.40 0.35 0.34 0.38 0.44
0.04 0.09 0.12 0.10 0.09 0.15 0.16 0.22 0.32 0.46 0.50 0.57 0.75 0.80 0.86 0.71 0.57 0.72 0.87 1.00 1.07 0.91 0.78 0.69 0.60 0.53 0.48 0.38 0.37 0.43 0.45 0.44 0.42 0.46 0.46 0.56 0.73 0.76 0.77 0.69 0.74 0.70 0.66 0.66 0.66 0.64 0.60 0.55 0.49
0.04 0.07 0.07 0.05 0.06 0.12 0.14 0.22 0.38 0.53 0.63 0.85 1.17 1.21 0.93 0.76 0.71 0.82 1.07 1.17 1.41 1.17 0.88 0.81 0.63 0.57 0.48 0.40 0.50 0.61 0.62 0.65 0.68 0.81 0.85 1.05 1.27 1.26 1.01 1.12 1.22 1.17 1.18 1.08 1.06 1.25 1.07 0.83 0.75
0.02 0.03 0.02 0.03 0.03 0.05 0.11 0.18 0.28 0.45 0.81 1.29 1.37 1.19 0.95 1.03 1.04 1.05 1.35 1.42 1.35 1.20 1.19 1.11 0.88 0.77 0.72 0.78 0.71 0.79 0.91 1.06 1.05 1.03 1.17 1.45 1.36 1.20 1.10 1.17 1.49 1.64 1.70 1.62 1.65 1.78 1.48 1.42 1.60
0.01 0.01 0.01 0.02 0.03 0.04 0.05 0.10 0.21 0.43 0.90 1.05 1.02 0.95 0.92 1.12 1.17 1.26 1.57 1.62 1.63 1.50 1.75 1.81 1.47 1.39 1.26 1.09 1.01 0.94 0.95 1.13 1.27 1.46 1.50 1.65 1.73 1.65 1.50 1.54 1.74 1.87 2.01 2.37 2.28 2.19 2.06 2.02 1.91
0.01 0.01 0.01 0.01 0.04 0.07 0.05 0.11 0.29 0.61 0.81 0.70 0.59 0.82 0.90 1.22 1.54 1.72 1.95 1.79 2.04 2.13 2.34 2.50 2.07 1.95 1.82 1.78 1.65 1.40 1.42 1.51 1.60 1.78 1.92 1.98 2.14 2.16 2.11 2.02 1.97 1.82 1.92 2.26 2.50 2.38 2.44 2.38 2.21
0.00 0.01 0.01 0.02 0.03 0.05 0.09 0.21 0.39 0.67 0.62 0.57 0.72 1.11 1.32 1.29 1.57 1.95 2.09 2.17 2.49 2.65 2.75 2.87 2.73 2.72 2.56 2.31 2.30 2.26 1.91 1.88 1.88 1.92 1.87 2.06 2.28 2.55 2.66 2.54 2.39 2.07 1.99 2.08 2.36 2.47 2.64 2.56 2.41
0.00 0.02 0.05 0.07 0.08 0.07 0.12 0.41 0.56 0.68 0.58 0.60 0.83 1.18 1.52 1.44 1.58 1.86 2.07 2.54 3.24 3.55 3.41 3.43 3.40 3.63 3.42 2.99 2.70 2.43 2.23 2.19 2.26 2.25 2.15 2.26 2.46 2.69 2.69 2.50 2.16 1.95 1.98 2.09 2.05 2.09 2.38 2.20 2.07
0.01 0.05 0.16 0.18 0.13 0.11 0.20 0.70 0.81 0.72 0.85 0.92 1.10 1.26 1.53 1.56 1.59 1.81 2.29 3.04 3.88 4.38 4.25 4.03 3.66 3.95 3.90 3.55 3.27 2.96 2.69 2.71 2.63 2.37 2.26 2.20 2.35 2.30 2.36 2.03 1.68 1.77 1.96 2.03 2.07 2.01 2.10 2.11 2.20
0.04 0.08 0.16 0.24 0.17 0.14 0.25 0.87 0.91 0.68 0.95 1.20 1.11 1.25 1.45 1.61 1.74 1.88 2.43 3.25 4.06 4.80 4.96 4.90 4.80 4.47 4.15 3.95 3.76 3.58 3.36 3.00 2.61 2.45 2.35 2.09 1.86 1.75 1.88 1.67 1.58 1.63 1.81 1.85 1.74 1.95 2.11 2.07 2.11
0.07 0.09 0.15 0.23 0.18 0.17 0.30 0.65 0.76 0.78 0.94 1.11 1.10 1.11 1.20 1.45 1.87 1.99 2.30 3.01 3.90 4.75 5.27 5.43 5.42 5.00 4.47 3.98 3.56 3.46 3.25 2.97 2.68 2.44 2.19 1.85 1.65 1.53 1.71 1.60 1.48 1.54 1.67 1.74 1.85 2.01 2.07 1.87 1.81
0.07 0.09 0.18 0.24 0.18 0.20 0.36 0.54 0.69 0.81 1.05 1.17 1.20 1.14 1.15 1.45 1.87 2.09 2.39 2.85 3.61 4.34 5.01 5.11 5.27 4.74 4.07 3.49 3.05 2.92 2.68 2.39 2.33 2.19 2.02 1.86 1.68 1.59 1.73 1.54 1.49 1.40 1.47 1.50 1.59 1.72 1.74 1.50 1.66
0.09 0.12 0.20 0.22 0.15 0.17 0.35 0.63 0.82 0.91 0.90 0.98 1.02 1.06 1.16 1.53 1.97 2.34 2.86 3.22 3.22 3.74 4.43 4.48 4.12 3.82 3.33 2.92 2.73 2.56 2.46 2.17 1.99 1.85 1.82 1.64 1.49 1.45 1.43 1.44 1.31 1.28 1.37 1.36 1.42 1.55 1.54 1.38 1.59
0.12 0.14 0.18 0.17 0.15 0.22 0.41 0.78 1.09 1.04 0.78 0.71 0.78 0.85 0.99 1.33 1.85 2.28 2.68 3.08 3.03 3.39 3.50 3.10 2.88 2.87 2.79 2.59 2.48 2.37 2.32 2.14 1.84 1.56 1.50 1.45 1.27 1.22 1.16 1.15 1.18 1.25 1.15 1.22 1.31 1.46 1.61 1.48 1.38
0.08 0.08 0.07 0.07 0.14 0.29 0.43 0.96 1.37 1.17 0.89 0.74 0.78 0.95 1.01 1.12 1.31 1.57 1.89 2.31 2.50 2.56 2.49 2.41 2.34 2.31 2.47 2.48 2.26 2.06 1.74 1.59 1.49 1.35 1.34 1.36 1.23 1.16 1.06 1.04 1.16 1.22 1.18 1.29 1.11 1.19 1.43 1.56 1.36
0.05 0.04 0.05 0.08 0.13 0.27 0.48 0.82 1.22 1.21 1.18 1.02 0.89 0.94 0.89 0.91 0.94 1.08 1.20 1.41 1.69 1.92 1.96 1.91 2.14 2.21 2.21 2.19 2.13 2.10 1.83 1.61 1.50 1.57 1.72 1.60 1.35 1.13 1.01 1.02 1.10 1.17 1.17 1.22 1.21 1.28 1.24 1.28 1.24
0.04 0.05 0.12 0.25 0.37 0.70 0.69 0.74 1.09 1.06 1.02 1.02 0.87 0.73 0.68 0.68 0.73 0.88 0.95 0.99 1.12 1.26 1.36 1.47 1.70 1.90 1.96 1.91 1.91 1.93 1.87 1.76 1.51 1.43 1.46 1.37 1.25 1.11 1.01 1.03 1.15 1.14 1.10 1.10 1.13 1.17 1.14 1.19 1.22
0.05 0.09 0.32 0.69 1.01 1.18 0.73 0.71 0.92 0.81 0.82 0.90 0.71 0.48 0.43 0.50 0.53 0.63 0.70 0.78 0.86 0.88 0.95 1.11 1.30 1.46 1.59 1.65 1.67 1.72 1.86 1.75 1.50 1.29 1.29 1.23 1.09 1.00 0.99 0.99 1.17 1.26 1.22 1.16 1.18 1.20 1.22 1.28 1.29
0.06 0.07 0.19 0.34 0.50 0.71 0.75 1.11 1.05 0.68 0.63 0.55 0.40 0.30 0.27 0.42 0.45 0.44 0.48 0.53 0.66 0.67 0.73 0.84 0.93 1.04 1.17 1.39 1.57 1.53 1.60 1.46 1.32 1.39 1.29 1.13 0.94 0.95 1.13 1.21 1.23 1.25 1.29 1.28 1.42 1.34 1.32 1.39 1.39
0.05 0.05 0.06 0.10 0.16 0.44 0.83 1.19 0.99 0.58 0.54 0.41 0.28 0.21 0.26 0.33 0.43 0.38 0.37 0.41 0.44 0.46 0.49 0.58 0.74 0.94 1.02 1.12 1.33 1.42 1.35 1.30 1.35 1.43 1.36 1.22 1.11 1.01 1.14 1.24 1.34 1.33 1.31 1.36 1.52 1.51 1.53 1.59 1.52
0.06 0.06 0.06 0.07 0.15 0.34 0.70 1.06 1.13 0.87 0.64 0.43 0.32 0.30 0.37 0.35 0.44 0.49 0.36 0.36 0.38 0.35 0.40 0.53 0.67 0.89 1.08 1.09 1.07 1.11 1.28 1.31 1.40 1.40 1.23 1.17 1.13 1.10 1.12 1.11 1.19 1.22 1.22 1.33 1.56 1.58 1.63 1.77 1.75
0.08 0.08 0.09 0.10 0.12 0.22 0.53 0.78 0.70 0.69 0.52 0.41 0.42 0.49 0.36 0.32 0.39 0.43 0.32 0.27 0.32 0.35 0.42 0.53 0.65 0.91 1.08 1.00 1.01 1.10 1.24 1.29 1.31 1.43 1.38 1.26 1.18 1.15 1.11 1.07 1.10 1.10 1.08 1.17 1.34 1.48 1.65 1.79 1.84
0.10 0.10 0.11 0.14 0.16 0.17 0.28 0.49 0.43 0.50 0.48 0.56 0.60 0.56 0.46 0.42 0.40 0.43 0.39 0.40 0.41 0.46 0.51 0.62 0.69 0.83 0.94 0.97 1.03 1.10 1.18 1.22 1.18 1.22 1.27 1.31 1.21 1.13 1.14 1.16 1.14 1.04 1.03 1.13 1.29 1.44 1.63 1.79 1.89